Melilla, Spain

3:42 AM CEST on May 01, 2017 (GMT +0200)
Melilla

Weather History for GEML - November, 2013

Change the Weather History Date:

Friday, November 22, 2013

  Actual Average Record
Temperature  
Mean Temperature 60 °F -  
Max Temperature 62 °F 65 °F 79 °F (2014)
Min Temperature 59 °F 54 °F 50 °F (2001)
Degree Days  
Heating Degree Days 4    
Growing Degree Days 10 (Base 50)    
Moisture  
Dew Point 53 °F    
Average Humidity 74    
Maximum Humidity 90    
Minimum Humidity 68    
Precipitation  
Precipitation 0.00 in 0.06 in - ()
Sea Level Pressure  
Sea Level Pressure 29.86 in    
Wind  
Wind Speed 9 mph ()    
Max Wind Speed 14 mph    
Max Gust Speed 29 mph    
Visibility 6.6 miles    
Events      
Averages and records for this station are not official NWS values.
T = Trace of Precipitation, MM = Missing Value Source: Averaged Metar Reports

Daily Weather History Graph

Daily Weather History Graph

Search for Another Location

Airport or City:

Trip Planner

Search our weather history database for the weather conditions in past years. The results will help you decide how hot, cold, wet, or windy it might be!

Date:

Astronomy

Nov. 22, 2013 Rise Set
Actual Time 7:53 AM CET 6:01 PM CET
Civil Twilight 7:26 AM CET 6:29 PM CET
Nautical Twilight 6:55 AM CET 7:00 PM CET
Astronomical Twilight 6:24 AM CET 7:30 PM CET
Moon 10:18 PM CET (11/22) 11:30 AM CET (11/22)
Length of Visible Light 11h 03m
Length of Day
10h 08m
Waning Gibbous, 80% of the Moon is Illuminated
Nov 22
Waning Gibbous
Nov 25
Last Quarter
Dec 3
New
Dec 9
First Quarter
Dec 17
Full

Hourly Weather History & Observations

Time (CET) Temp. Dew Point Humidity Pressure Visibility Wind Dir Wind Speed Gust Speed Precip Events Conditions
6:00 AM 59.0 °F 51.8 °F 77% 29.86 in 6.2 mi West 9.2 mph - N/A   Mostly Cloudy
6:30 AM 59.0 °F 51.8 °F 77% 29.86 in 6.2 mi West 10.4 mph 21.9 mph N/A   Mostly Cloudy
7:00 AM 59 °F 56 °F 87% 29.86 in 12 mi West 10.4 mph - -   Mostly Cloudy
7:00 AM 59.0 °F 51.8 °F 77% 29.86 in 6.2 mi West 10.4 mph - N/A   Mostly Cloudy
7:30 AM 60.8 °F 51.8 °F 72% 29.86 in 6.2 mi West 13.8 mph 28.8 mph N/A   Mostly Cloudy
8:00 AM 60.8 °F 51.8 °F 72% 29.86 in 6.2 mi West 11.5 mph 26.5 mph N/A   Mostly Cloudy
8:30 AM 60.8 °F 51.8 °F 72% 29.86 in 6.2 mi West 13.8 mph 25.3 mph N/A   Scattered Clouds
9:00 AM 60.8 °F 51.8 °F 72% 29.86 in 6.2 mi West 12.7 mph - N/A   Scattered Clouds
9:30 AM 60.8 °F 50.0 °F 68% 29.89 in 6.2 mi West 11.5 mph 24.2 mph N/A   Scattered Clouds
10:00 AM 60.8 °F 50.0 °F 68% 29.89 in 6.2 mi West 11.5 mph - N/A   Scattered Clouds
10:30 AM 60.8 °F 50.0 °F 68% 29.89 in 6.2 mi West 10.4 mph 21.9 mph N/A   Scattered Clouds
11:00 AM 60.8 °F 51.8 °F 72% 29.89 in 6.2 mi West 10.4 mph - N/A   Scattered Clouds
11:30 AM 60.8 °F 51.8 °F 72% 29.89 in 6.2 mi West 11.5 mph - N/A   Scattered Clouds
12:00 PM 62.6 °F 51.8 °F 68% 29.89 in 6.2 mi West 13.8 mph - N/A   Scattered Clouds
12:30 PM 62.6 °F 51.8 °F 68% 29.89 in 6.2 mi West 11.5 mph - N/A   Mostly Cloudy
1:00 PM 62 °F 57 °F 79% 29.88 in 31 mi West 10.4 mph - -   Mostly Cloudy
1:00 PM 62.6 °F 53.6 °F 72% 29.86 in 6.2 mi West 10.4 mph 23.0 mph N/A   Mostly Cloudy
1:30 PM 60.8 °F 51.8 °F 72% 29.86 in 6.2 mi West 12.7 mph - N/A   Mostly Cloudy
2:00 PM 62.6 °F 51.8 °F 68% 29.86 in 6.2 mi West 12.7 mph - N/A   Mostly Cloudy
2:30 PM 62.6 °F 53.6 °F 72% 29.83 in 6.2 mi West 12.7 mph - N/A   Mostly Cloudy
3:00 PM 62.6 °F 53.6 °F 72% 29.83 in 6.2 mi West 11.5 mph - N/A   Scattered Clouds
3:30 PM 62.6 °F 53.6 °F 72% 29.83 in 6.2 mi WNW 10.4 mph - N/A   Scattered Clouds
4:00 PM 62.6 °F 53.6 °F 72% 29.83 in 6.2 mi West 4.6 mph - N/A   Scattered Clouds
4:30 PM 62.6 °F 53.6 °F 72% 29.83 in 6.2 mi WNW 5.8 mph - N/A   Scattered Clouds
5:00 PM 60.8 °F 53.6 °F 77% 29.83 in 6.2 mi WNW 6.9 mph - N/A   Mostly Cloudy
5:30 PM 60.8 °F 53.6 °F 77% 29.83 in 6.2 mi WNW 5.8 mph - N/A   Mostly Cloudy
6:00 PM 60.8 °F 53.6 °F 77% 29.83 in 6.2 mi WNW 4.6 mph - N/A   Mostly Cloudy
6:30 PM 60.8 °F 53.6 °F 77% 29.83 in 6.2 mi West 3.5 mph - N/A   Mostly Cloudy
7:00 PM 60 °F 58 °F 90% 29.85 in 12 mi West 2.3 mph - -   Mostly Cloudy
7:00 PM 60.8 °F 53.6 °F 77% 29.86 in 6.2 mi West 2.3 mph - N/A   Mostly Cloudy
7:30 PM 60.8 °F 53.6 °F 77% 29.86 in 6.2 mi West 3.5 mph - N/A   Scattered Clouds